Weather History for Fort Payne, AL

Change the Weather History Date:

Monday, February 11, 2013

  Actual Average (KRMG) Record (KRMG)
Temperature  
Mean Temperature 48 °F 43 °F  
Max Temperature 55 °F 55 °F 73 °F (1999)
Min Temperature 42 °F 32 °F 19 °F (2011)
Degree Days  
Heating Degree Days 16 22  
Month to date heating degree days 247  
Since 1 July heating degree days 2289  
Moisture  
Dew Point 46 °F    
Average Humidity 83    
Maximum Humidity 94    
Minimum Humidity 54    
Precipitation  
Precipitation 0.03 in 0.15 in 0.35 in (2006)
Month to date precipitation 1.77  
Year to date precipitation 6.59  
Snow  
Snow 0.00 in - - ()
Month to date snowfall  
Since 1 July snowfall  
Snow Depth -    
Sea Level Pressure  
Sea Level Pressure 30.09 in    
Wind  
Wind Speed 2 mph (WSW)    
Max Wind Speed 9 mph    
Max Gust Speed -    
Visibility 9 miles    
Events Rain    
T = Trace of Precipitation, MM = Missing Value Source: NWS Daily Summary

Daily Weather History Graph

Daily Weather History Graph

Search for Another Location

Airport:

Trip Planner

Search our weather history database for the weather conditions in past years. The results will help you decide how hot, cold, wet, or windy it might be!

Date:

Astronomy

Feb. 11, 2013 Rise Set
Actual Time 6:31 AM CST 5:22 PM CST
Civil Twilight 6:06 AM CST 5:48 PM CST
Nautical Twilight 5:36 AM CST 6:18 PM CST
Astronomical Twilight 5:07 AM CST 6:47 PM CST
Moon 7:02 AM CST (2/11) 7:11 PM CST (2/11)
Length of Visible Light 11h 42m
Length of Day
10h 50m
Waxing Crescent, 3% of the Moon is Illuminated
Feb 11
Waxing Crescent
Feb 17
First Quarter
Feb 25
Full
Mar 4
Last Quarter
Mar 11
New

Hourly Weather History & Observations

Time (CST) Temp. Dew Point Humidity Pressure Visibility Wind Dir Wind Speed Gust Speed Precip Events Conditions
12:15 AM 53.6 °F 50.0 °F 88% 30.00 in 10.0 mi WNW 4.6 mph - N/A   Overcast
12:35 AM 53.6 °F 50.0 °F 88% 30.04 in 10.0 mi Calm Calm - N/A   Overcast
12:55 AM 53.6 °F 50.0 °F 88% 30.02 in 10.0 mi SE 9.2 mph - N/A   Overcast
1:15 AM 53.6 °F 50.0 °F 88% 30.03 in 10.0 mi SE 3.5 mph - N/A   Overcast
1:35 AM 53.6 °F 50.0 °F 88% 30.03 in 10.0 mi WSW 5.8 mph - 0.01 in   Light Drizzle
2:15 AM 53.6 °F 50.0 °F 88% 30.04 in 10.0 mi WSW 4.6 mph - N/A   Light Drizzle
2:35 AM 53.6 °F 50.0 °F 88% 30.04 in 10.0 mi East 3.5 mph - N/A Rain Light Rain
3:15 AM 53.6 °F 50.0 °F 88% 30.03 in 10.0 mi Calm Calm - N/A Rain Rain
3:35 AM 53.6 °F 50.0 °F 88% 30.02 in 10.0 mi Calm Calm - N/A   Light Drizzle
3:55 AM 53.6 °F 50.0 °F 88% 30.02 in 10.0 mi Calm Calm - N/A   Overcast
4:15 AM 53.6 °F 50.0 °F 88% 30.02 in 10.0 mi Calm Calm - N/A   Overcast
4:35 AM 51.8 °F 50.0 °F 94% 30.02 in 10.0 mi Calm Calm - N/A   Overcast
4:55 AM 51.8 °F 50.0 °F 94% 30.03 in 10.0 mi Calm Calm - N/A   Overcast
5:15 AM 51.8 °F 50.0 °F 94% 30.05 in 7.0 mi Calm Calm - N/A   Overcast
5:35 AM 51.8 °F 50.0 °F 94% 30.05 in 7.0 mi WSW 4.6 mph - N/A   Overcast
5:55 AM 51.8 °F 50.0 °F 94% 30.05 in 5.0 mi NNW 5.8 mph - N/A   Overcast
6:15 AM 53.6 °F 50.0 °F 88% 30.07 in 3.0 mi Calm Calm - 0.01 in Rain Heavy Rain
6:35 AM 51.8 °F 50.0 °F 94% 30.07 in 3.0 mi Calm Calm - 0.02 in   Overcast
6:55 AM 53.6 °F 50.0 °F 88% 30.06 in 2.0 mi SE 4.6 mph - 0.02 in   Light Drizzle
7:15 AM 53.6 °F 51.8 °F 94% 30.05 in 5.0 mi Calm Calm - N/A   Overcast
7:35 AM 53.6 °F 50.0 °F 88% 30.08 in 2.5 mi Calm Calm - N/A   Overcast
7:55 AM 53.6 °F 51.8 °F 94% 30.08 in 2.5 mi Calm Calm - N/A   Overcast
8:15 AM 53.6 °F 51.8 °F 94% 30.10 in 3.0 mi Calm Calm - N/A   Overcast
8:35 AM 53.6 °F 51.8 °F 94% 30.10 in 4.0 mi Calm Calm - N/A   Overcast
8:55 AM 53.6 °F 51.8 °F 94% 30.13 in 5.0 mi WSW 4.6 mph - N/A   Overcast
9:15 AM 53.6 °F 51.8 °F 94% 30.13 in 5.0 mi SSW 3.5 mph - N/A   Overcast
9:35 AM 53.6 °F 51.8 °F 94% 30.11 in 5.0 mi Calm Calm - N/A   Overcast
9:55 AM 53.6 °F 51.8 °F 94% 30.10 in 7.0 mi Calm Calm - N/A   Mostly Cloudy
10:15 AM 55.4 °F 51.8 °F 88% 30.10 in 10.0 mi Calm Calm - N/A   Mostly Cloudy
10:35 AM 55.4 °F 50.0 °F 82% 30.11 in 10.0 mi Calm Calm - N/A   Mostly Cloudy
10:55 AM 55.4 °F 46.4 °F 72% 30.13 in 10.0 mi WSW 5.8 mph - N/A   Mostly Cloudy
11:15 AM 55.4 °F 46.4 °F 72% 30.14 in 10.0 mi West 3.5 mph - N/A   Overcast
11:35 AM 55.4 °F 46.4 °F 72% 30.13 in 10.0 mi West 3.5 mph - N/A   Scattered Clouds
11:55 AM 55.4 °F 44.6 °F 67% 30.14 in 10.0 mi WNW 3.5 mph - N/A   Clear
12:15 PM 55.4 °F 42.8 °F 63% 30.12 in 10.0 mi Calm Calm - N/A   Clear
12:35 PM 55.4 °F 42.8 °F 63% 30.11 in 10.0 mi WNW 3.5 mph - N/A   Clear
12:55 PM 55.4 °F 41.0 °F 58% 30.11 in 10.0 mi WNW 5.8 mph - N/A   Scattered Clouds
1:15 PM 55.4 °F 39.2 °F 54% 30.10 in 10.0 mi WSW 5.8 mph - N/A   Overcast
1:35 PM 55.4 °F 41.0 °F 58% 30.10 in 10.0 mi WNW 3.5 mph - N/A   Overcast
1:55 PM 55.4 °F 41.0 °F 58% 30.10 in 10.0 mi NW 6.9 mph - N/A   Mostly Cloudy
2:15 PM 55.4 °F 42.8 °F 63% 30.11 in 10.0 mi West 6.9 mph - N/A   Mostly Cloudy
2:35 PM 55.4 °F 41.0 °F 58% 30.11 in 10.0 mi WSW 4.6 mph - N/A   Scattered Clouds
2:55 PM 53.6 °F 42.8 °F 67% 30.08 in 10.0 mi Calm Calm - N/A   Scattered Clouds
3:15 PM 53.6 °F 41.0 °F 62% 30.09 in 10.0 mi Calm Calm - N/A   Scattered Clouds
3:35 PM 53.6 °F 42.8 °F 67% 30.09 in 10.0 mi WSW 3.5 mph - N/A   Clear
3:55 PM 53.6 °F 41.0 °F 62% 30.08 in 10.0 mi Calm Calm - N/A   Clear
4:55 PM 53.6 °F 42.8 °F 67% 30.09 in 10.0 mi Calm Calm - N/A   Clear
5:15 PM 51.8 °F 42.8 °F 71% 30.08 in 10.0 mi Calm Calm - N/A   Clear
5:35 PM 50.0 °F 42.8 °F 76% 30.10 in 10.0 mi Calm Calm - N/A   Clear
5:55 PM 48.2 °F 42.8 °F 82% 30.09 in 10.0 mi Calm Calm - N/A   Clear
6:15 PM 46.4 °F 42.8 °F 87% 30.10 in 10.0 mi Calm Calm - N/A   Clear
6:35 PM 46.4 °F 42.8 °F 87% 30.10 in 10.0 mi Calm Calm - N/A   Clear
6:55 PM 46.4 °F 42.8 °F 87% 30.10 in 10.0 mi Calm Calm - N/A   Clear
7:15 PM 44.6 °F 42.8 °F 93% 30.10 in 10.0 mi Calm Calm - N/A   Clear
7:35 PM 44.6 °F 42.8 °F 93% 30.10 in 10.0 mi Calm Calm - N/A   Scattered Clouds
7:55 PM 44.6 °F 42.8 °F 93% 30.10 in 10.0 mi Calm Calm - N/A   Scattered Clouds
8:15 PM 44.6 °F 42.8 °F 93% 30.10 in 10.0 mi Calm Calm - N/A   Mostly Cloudy
8:35 PM 44.6 °F 42.8 °F 93% 30.11 in 10.0 mi Calm Calm - N/A   Scattered Clouds
8:55 PM 44.6 °F 42.8 °F 93% 30.12 in 10.0 mi Calm Calm - N/A   Clear
9:15 PM 44.6 °F 42.8 °F 93% 30.12 in 10.0 mi Calm Calm - N/A   Clear
9:35 PM 44.6 °F 42.8 °F 93% 30.15 in 10.0 mi Calm Calm - N/A   Clear
9:55 PM 44.6 °F 42.8 °F 93% 30.13 in 10.0 mi Calm Calm - N/A   Clear
10:15 PM 44.6 °F 41.0 °F 87% 30.12 in 10.0 mi Calm Calm - N/A   Clear
10:35 PM 42.8 °F 41.0 °F 93% 30.13 in 10.0 mi Calm Calm - N/A   Clear
10:55 PM 42.8 °F 41.0 °F 93% 30.11 in 10.0 mi Calm Calm - N/A   Clear
11:15 PM 42.8 °F 41.0 °F 93% 30.12 in 10.0 mi Calm Calm - N/A   Clear
11:35 PM 42.8 °F 41.0 °F 93% 30.12 in 10.0 mi Calm Calm - N/A   Clear
11:55 PM 42.8 °F 39.2 °F 87% 30.13 in 10.0 mi Calm Calm - N/A   Clear